This demonstration page uses our WeatherBlox Daily Observations layout. Learn more.

39.29038, -76.61219

Hourly Observations for February 28, 2020

Temp ( °F °C ) Dew Point ( °F °C ) Humidity (%) Winds ( mph kmh ) Pressure ( in mb ) Visibility ( mi km ) Precip ( " mm )
12:54 am 00:54 undefined 34 1.1 12 -11.1 40 40 undefined N/A 29.96 1015 N/A 0 0
1:54 am 01:54 undefined 33 0.6 13 -10.6 43 43 undefined N/A 29.95 1014 N/A 0 0
2:54 am 02:54 undefined 33 0.6 13 -10.6 43 43 undefined N/A 29.95 1014 N/A 0 0
3:54 am 03:54 undefined 33 0.6 14 -10 45 45 undefined N/A 29.94 1014 N/A 0 0
4:54 am 04:54 undefined 33 0.6 14 -10 45 45 undefined N/A 29.95 1014 N/A 0 0
5:54 am 05:54 undefined 33 0.6 15 -9.4 47 47 undefined N/A 29.95 1014 N/A 0 0
6:54 am 06:54 undefined 32 0 16 -8.9 52 52 undefined N/A 29.95 1014 N/A 0 0
7:54 am 07:54 undefined 34 1.1 17 -8.3 50 50 undefined N/A 29.96 1015 N/A 0 0
8:54 am 08:54 undefined 36 2.2 17 -8.3 46 46 undefined N/A 29.96 1015 N/A 0 0
9:54 am 09:54 undefined 38 3.3 18 -7.8 44 44 undefined N/A 29.95 1014 N/A 0 0
10:54 am 10:54 undefined 41 5 20 -6.7 43 43 undefined N/A 29.95 1014 N/A 0 0
11:54 am 11:54 undefined 43 6.1 22 -5.6 43 43 undefined N/A 29.92 1013 N/A 0 0
12:54 pm 12:54 undefined 45 7.2 22 -5.6 40 40 undefined N/A 29.9 1013 N/A 0 0
1:54 pm 13:54 undefined 45 7.2 22 -5.6 40 40 undefined N/A 29.87 1012 N/A 0 0
2:54 pm 14:54 undefined 45 7.2 21 -6.1 39 39 undefined N/A 29.83 1010 N/A 0 0
3:54 pm 15:54 undefined 45 7.2 22 -5.6 40 40 undefined N/A 29.8 1009 N/A 0 0
4:54 pm 16:54 undefined 44 6.7 23 -5 43 43 undefined N/A 29.82 1010 N/A 0 0
5:54 pm 17:54 undefined 42 5.6 26 -3.3 53 53 undefined N/A 29.83 1010 N/A 0 0
6:54 pm 18:54 undefined 41 5 25 -3.9 53 53 undefined N/A 29.85 1011 N/A 0 0
7:54 pm 19:54 undefined 41 5 17 -8.3 38 38 undefined N/A 29.87 1012 N/A 0 0
8:54 pm 20:54 undefined 40 4.4 17 -8.3 40 40 undefined N/A 29.88 1012 N/A 0 0
9:54 pm 21:54 undefined 38 3.3 16 -8.9 41 41 undefined N/A 29.9 1013 N/A 0 0
10:54 pm 22:54 undefined 37 2.8 16 -8.9 42 42 undefined N/A 29.91 1013 N/A 0 0
11:54 pm 23:54 undefined 36 2.2 17 -8.3 46 46 undefined N/A 29.91 1013 N/A 0 0

Powered by AerisWeather